Погода в Пуэрто Вьехо де Сарапики

Коста-Рика     10°27′03″N   84°00′59″W
темп.,
°C
ветер,
м/с
пор.,
м/с
влажн.,
%
обл.,
%
осадки,
мм/ч
давл.,
гПа
погр.,
м
9 августа, вт
вт900:00+22ююз009884 0.5 101213
03:00+22зюз019959 0.0 101013
06:00+22зюз119825 0.0 101227
09:00+28св1279100 0.1 1013608
12:00+30в236616 1.4 10111134
15:00+28в258587 2.4 1009709
18:00+24вюв149585 5.7 101170
21:00+23юв1199100 1.4 101323
10 августа, ср
ср1000:00+22вюв0199100 1.4 101216
03:00+22ю0099100 0.0 101116
06:00+23ю0098100 0.0 101229
09:00+25всв0191100 0.6 1013247
12:00+26св139298 3.6 1012348
15:00+26св1493100 4.3 1010476
18:00+23вюв1197100 8.2 101211
21:00+23ююв009899 0.9 101313
11 августа, чт
чт1100:00+22зюз119999 2.3 101316
03:00+22зюз009988 1.8 101119
06:00+22з0199100 6.2 101251
09:00+23ююз0199100 2.7 101466
12:00+25ссв1293100 4.5 1013407
15:00+25ссв0195100 5.2 1011177
18:00+23ююз1298100 9.6 101247
21:00+22ююв1198100 0.9 101442
12 августа, пт
пт1200:00+22вюв0098100 1.4 101314
03:00+21вюв0199100 0.9 101217
06:00+21ююз1199100 3.1 101335
09:00+22зсз1398100 0.1 101495
12:00+23з1297100 0.6 101492
15:00+22з1299100 2.4 1012120
18:00+22з1499100 4.4 1013144
21:00+21зсз1298100 0.2 101470
13 августа, сб
сб1300:00+21з1199100 0.3 101436
03:00+21сз1198100 0.3 101225
06:00+21зсз0098100 0.4 101319
09:00+24с1191100 0.0 1014222
12:00+30ссв116598 0.1 10121101
15:00+27св228983 2.9 1011547
18:00+23ю119795 8.7 101216
21:00+23ю1198100 3.4 101416